Time,TemperatureF,DewpointF,PressureIn,WindDirection,WindDirectionDegrees,WindSpeedMPH,WindSpeedGustMPH,Humidity,HourlyPrecipIn,Conditions,Clouds,dailyrainin,SoftwareType,DateUTC
2013-03-16 00:02:00,34.4,32.5,29.99,ENE,68,11.0,11.0,93,0.01,,,0.00,WUHU216HW,2013-03-16 04:02:00,
2013-03-16 00:07:00,34.0,31.9,29.99,NE,45,8.5,11.0,92,0.01,,,0.00,WUHU216HW,2013-03-16 04:07:00,
2013-03-16 00:12:00,33.5,31.1,29.98,ENE,68,9.6,11.0,91,0.01,,,0.00,WUHU216HW,2013-03-16 04:12:00,
2013-03-16 00:17:00,33.3,31.1,29.98,ENE,68,8.5,13.4,92,0.01,,,0.00,WUHU216HW,2013-03-16 04:17:00,
2013-03-16 00:22:00,33.1,31.1,29.98,ENE,68,8.5,13.4,92,0.01,,,0.00,WUHU216HW,2013-03-16 04:22:00,
2013-03-16 00:27:00,33.1,31.1,29.98,NE,45,7.4,12.8,92,0.01,,,0.00,WUHU216HW,2013-03-16 04:27:00,
2013-03-16 00:32:00,32.8,30.7,29.98,NE,45,11.2,11.2,92,0.01,,,0.00,WUHU216HW,2013-03-16 04:32:00,
2013-03-16 00:37:00,32.8,30.7,29.98,NE,45,10.1,13.0,92,0.01,,,0.00,WUHU216HW,2013-03-16 04:37:00,
2013-03-16 00:42:00,32.8,31.0,29.98,ENE,68,10.1,13.0,93,0.01,,,0.00,WUHU216HW,2013-03-16 04:42:00,
2013-03-16 00:47:00,32.8,31.0,29.98,ENE,68,10.1,10.1,93,0.01,,,0.00,WUHU216HW,2013-03-16 04:47:00,
2013-03-16 01:05:00,32.4,30.3,29.97,NE,45,11.9,14.1,92,0.00,,,0.00,WUHU216HW,2013-03-16 05:05:00,
2013-03-16 01:11:00,32.2,30.2,29.96,NE,45,10.7,14.1,92,0.00,,,0.00,WUHU216HW,2013-03-16 05:11:00,
2013-03-16 01:16:00,32.2,30.2,29.96,NE,45,12.1,12.5,92,0.00,,,0.00,WUHU216HW,2013-03-16 05:16:00,
2013-03-16 01:21:00,32.2,30.4,29.96,NE,45,11.2,12.3,93,0.00,,,0.00,WUHU216HW,2013-03-16 05:21:00,
2013-03-16 01:26:00,32.0,30.1,29.96,NE,45,12.5,15.0,92,0.00,,,0.00,WUHU216HW,2013-03-16 05:26:00,
2013-03-16 01:31:00,31.9,29.9,29.95,NE,45,13.6,16.6,92,0.00,,,0.00,WUHU216HW,2013-03-16 05:31:00,
2013-03-16 01:36:00,31.9,29.9,29.95,NE,45,12.5,16.6,92,0.00,,,0.00,WUHU216HW,2013-03-16 05:36:00,
2013-03-16 01:41:00,31.9,30.1,29.95,NE,45,9.8,12.5,93,0.00,,,0.00,WUHU216HW,2013-03-16 05:41:00,
2013-03-16 01:46:00,31.3,29.4,29.95,NE,45,13.4,15.2,92,0.00,,,0.00,WUHU216HW,2013-03-16 05:46:00,
2013-03-16 01:51:00,31.3,29.5,29.95,NE,45,10.5,15.2,93,0.00,,,0.00,WUHU216HW,2013-03-16 05:51:00,
2013-03-16 01:56:00,31.3,29.5,29.95,NE,45,11.0,12.8,93,0.00,,,0.00,WUHU216HW,2013-03-16 05:56:00,
2013-03-16 02:02:00,31.1,29.2,29.95,NE,45,12.5,14.8,92,0.00,,,0.00,WUHU216HW,2013-03-16 06:02:00,
2013-03-16 02:07:00,31.0,28.7,29.95,NE,45,18.6,18.6,91,0.00,,,0.00,WUHU216HW,2013-03-16 06:07:00,
2013-03-16 02:12:00,30.6,28.4,29.95,NE,45,13.2,22.8,91,0.00,,,0.00,WUHU216HW,2013-03-16 06:12:00,
2013-03-16 02:17:00,30.4,28.2,29.94,NE,45,20.4,22.8,91,0.00,,,0.00,WUHU216HW,2013-03-16 06:17:00,
2013-03-16 02:22:00,30.2,28.0,29.93,NE,45,12.5,20.4,91,0.00,,,0.00,WUHU216HW,2013-03-16 06:22:00,
2013-03-16 02:27:00,29.9,27.6,29.93,NE,45,13.0,17.2,91,0.00,,,0.00,WUHU216HW,2013-03-16 06:27:00,
2013-03-16 02:32:00,29.9,27.9,29.93,NE,45,16.3,16.8,92,0.00,,,0.00,WUHU216HW,2013-03-16 06:32:00,
2013-03-16 02:37:00,29.9,28.1,29.93,NE,45,8.9,16.8,93,0.00,,,0.00,WUHU216HW,2013-03-16 06:37:00,
2013-03-16 02:42:00,29.9,28.1,29.93,NE,45,12.5,14.1,93,0.00,,,0.00,WUHU216HW,2013-03-16 06:42:00,
2013-03-16 02:47:00,29.9,28.1,29.93,NE,45,14.8,15.0,93,0.00,,,0.00,WUHU216HW,2013-03-16 06:47:00,
2013-03-16 02:52:00,29.9,28.1,29.94,NE,45,15.7,15.7,93,0.00,,,0.00,WUHU216HW,2013-03-16 06:52:00,
2013-03-16 02:57:00,29.7,27.7,29.93,NE,45,15.7,16.8,92,0.00,,,0.00,WUHU216HW,2013-03-16 06:57:00,
2013-03-16 03:02:00,29.7,27.7,29.94,NE,45,14.3,16.8,92,0.00,,,0.00,WUHU216HW,2013-03-16 07:02:00,
2013-03-16 03:07:00,29.7,27.7,29.93,NE,45,11.4,15.7,92,0.00,,,0.00,WUHU216HW,2013-03-16 07:07:00,
2013-03-16 03:12:00,29.7,27.7,29.93,NE,45,10.1,14.5,92,0.00,,,0.00,WUHU216HW,2013-03-16 07:12:00,
2013-03-16 03:17:00,29.7,27.7,29.94,NE,45,11.4,14.3,92,0.00,,,0.00,WUHU216HW,2013-03-16 07:17:00,
2013-03-16 03:22:00,29.7,27.7,29.95,NE,45,11.6,14.3,92,0.00,,,0.00,WUHU216HW,2013-03-16 07:22:00,
2013-03-16 03:27:00,29.5,27.3,29.94,NE,45,13.4,13.9,91,0.00,,,0.00,WUHU216HW,2013-03-16 07:27:00,
2013-03-16 03:32:00,29.5,27.3,29.95,NE,45,9.2,13.9,91,0.00,,,0.00,WUHU216HW,2013-03-16 07:32:00,
2013-03-16 03:37:00,29.5,27.3,29.94,NE,45,12.1,13.6,91,0.00,,,0.00,WUHU216HW,2013-03-16 07:37:00,
2013-03-16 03:42:00,29.5,27.3,29.93,NE,45,10.5,14.3,91,0.00,,,0.00,WUHU216HW,2013-03-16 07:42:00,
2013-03-16 03:47:00,29.5,27.3,29.92,NE,45,19.5,19.5,91,0.00,,,0.00,WUHU216HW,2013-03-16 07:47:00,
2013-03-16 03:52:00,29.5,27.3,29.92,NE,45,15.7,19.5,91,0.00,,,0.00,WUHU216HW,2013-03-16 07:52:00,
2013-03-16 03:57:00,29.3,27.1,29.92,NE,45,10.7,16.3,91,0.00,,,0.00,WUHU216HW,2013-03-16 07:57:00,
2013-03-16 04:02:00,29.3,27.1,29.91,NE,45,15.4,16.3,91,0.00,,,0.00,WUHU216HW,2013-03-16 08:02:00,
2013-03-16 04:07:00,29.3,27.1,29.92,NE,45,12.8,15.4,91,0.00,,,0.00,WUHU216HW,2013-03-16 08:07:00,
2013-03-16 04:12:00,29.3,27.1,29.92,NE,45,12.1,14.5,91,0.00,,,0.00,WUHU216HW,2013-03-16 08:12:00,
2013-03-16 04:17:00,29.5,27.3,29.91,NE,45,11.2,14.5,91,0.00,,,0.00,WUHU216HW,2013-03-16 08:17:00,
2013-03-16 04:22:00,29.5,27.3,29.91,NE,45,10.5,11.2,91,0.00,,,0.00,WUHU216HW,2013-03-16 08:22:00,
2013-03-16 04:27:00,29.5,27.3,29.91,NE,45,10.3,13.2,91,0.00,,,0.00,WUHU216HW,2013-03-16 08:27:00,
2013-03-16 04:32:00,29.5,27.3,29.91,NE,45,10.3,15.7,91,0.00,,,0.00,WUHU216HW,2013-03-16 08:32:00,
2013-03-16 04:37:00,29.5,27.3,29.91,NE,45,8.5,15.7,91,0.00,,,0.00,WUHU216HW,2013-03-16 08:37:00,
2013-03-16 04:42:00,29.5,27.3,29.90,NE,45,12.8,14.3,91,0.00,,,0.00,WUHU216HW,2013-03-16 08:42:00,
2013-03-16 04:47:00,29.7,27.5,29.90,NE,45,11.9,13.4,91,0.00,,,0.00,WUHU216HW,2013-03-16 08:47:00,
2013-03-16 04:52:00,29.7,27.5,29.90,NE,45,13.6,15.7,91,0.00,,,0.00,WUHU216HW,2013-03-16 08:52:00,
2013-03-16 04:57:00,29.7,27.5,29.90,NE,45,18.1,18.1,91,0.00,,,0.00,WUHU216HW,2013-03-16 08:57:00,
2013-03-16 05:02:00,29.7,27.2,29.90,NE,45,13.2,18.1,90,0.00,,,0.00,WUHU216HW,2013-03-16 09:02:00,
2013-03-16 05:07:00,29.9,27.6,29.90,NE,45,10.1,17.2,91,0.00,,,0.00,WUHU216HW,2013-03-16 09:07:00,
2013-03-16 05:12:00,29.9,27.4,29.90,NE,45,10.5,17.2,90,0.00,,,0.00,WUHU216HW,2013-03-16 09:12:00,
2013-03-16 05:17:00,29.9,27.4,29.90,NE,45,14.8,14.8,90,0.00,,,0.00,WUHU216HW,2013-03-16 09:17:00,
2013-03-16 05:22:00,29.9,27.6,29.90,NE,45,11.2,14.8,91,0.00,,,0.00,WUHU216HW,2013-03-16 09:22:00,
2013-03-16 05:27:00,29.9,27.6,29.90,NE,45,11.2,11.4,91,0.00,,,0.00,WUHU216HW,2013-03-16 09:27:00,
2013-03-16 05:54:00,30.1,27.5,29.89,NE,45,9.6,15.7,90,0.00,,,0.00,WUHU216HW,2013-03-16 09:54:00,
2013-03-16 05:59:00,30.1,27.3,29.89,NE,45,15.2,16.3,89,0.00,,,0.00,WUHU216HW,2013-03-16 09:59:00,
2013-03-16 06:04:00,30.2,27.5,29.89,NE,45,11.2,16.3,89,0.00,,,0.00,WUHU216HW,2013-03-16 10:04:00,
2013-03-16 06:09:00,30.1,27.3,29.90,NE,45,9.6,15.2,89,0.00,,,0.00,WUHU216HW,2013-03-16 10:09:00,
2013-03-16 06:14:00,30.1,27.0,29.89,NE,45,13.4,19.9,88,0.00,,,0.00,WUHU216HW,2013-03-16 10:14:00,
2013-03-16 06:19:00,30.1,27.0,29.89,NE,45,11.4,19.9,88,0.00,,,0.00,WUHU216HW,2013-03-16 10:19:00,
2013-03-16 06:24:00,30.1,27.0,29.89,NE,45,12.8,19.9,88,0.00,,,0.00,WUHU216HW,2013-03-16 10:24:00,
2013-03-16 06:29:00,30.1,27.0,29.90,NE,45,10.3,16.3,88,0.00,,,0.00,WUHU216HW,2013-03-16 10:29:00,
2013-03-16 06:34:00,30.1,27.0,29.90,NE,45,10.5,13.4,88,0.00,,,0.00,WUHU216HW,2013-03-16 10:34:00,
2013-03-16 06:39:00,30.1,27.0,29.90,NE,45,10.5,13.4,88,0.00,,,0.00,WUHU216HW,2013-03-16 10:39:00,
2013-03-16 06:44:00,30.1,26.6,29.90,NE,45,13.6,13.6,87,0.00,,,0.00,WUHU216HW,2013-03-16 10:44:00,
2013-03-16 06:49:00,30.1,26.6,29.90,NE,45,11.6,14.8,87,0.00,,,0.00,WUHU216HW,2013-03-16 10:49:00,
2013-03-16 06:54:00,30.1,27.0,29.90,NE,45,13.6,14.8,88,0.00,,,0.00,WUHU216HW,2013-03-16 10:54:00,
2013-03-16 06:59:00,30.1,27.0,29.90,NE,45,12.3,13.6,88,0.00,,,0.00,WUHU216HW,2013-03-16 10:59:00,
2013-03-16 07:04:00,30.1,27.0,29.91,NE,45,7.8,12.3,88,0.00,,,0.00,WUHU216HW,2013-03-16 11:04:00,
2013-03-16 07:09:00,30.1,26.6,29.91,NE,45,11.6,11.6,87,0.00,,,0.00,WUHU216HW,2013-03-16 11:09:00,
2013-03-16 07:14:00,29.9,26.8,29.90,NE,45,10.3,12.8,88,0.00,,,0.00,WUHU216HW,2013-03-16 11:14:00,
2013-03-16 07:19:00,29.9,26.5,29.90,NE,45,11.9,15.7,87,0.00,,,0.00,WUHU216HW,2013-03-16 11:19:00,
2013-03-16 07:24:00,29.9,26.8,29.91,NE,45,9.6,15.7,88,0.00,,,0.00,WUHU216HW,2013-03-16 11:24:00,
2013-03-16 07:29:00,29.9,26.8,29.91,NE,45,11.4,11.4,88,0.00,,,0.00,WUHU216HW,2013-03-16 11:29:00,
2013-03-16 07:34:00,29.9,26.5,29.91,NE,45,14.1,18.8,87,0.00,,,0.00,WUHU216HW,2013-03-16 11:34:00,
2013-03-16 07:39:00,29.7,26.3,29.92,NE,45,10.5,18.8,87,0.00,,,0.00,WUHU216HW,2013-03-16 11:39:00,
2013-03-16 07:44:00,29.7,26.0,29.92,NE,45,15.4,18.6,86,0.00,,,0.00,WUHU216HW,2013-03-16 11:44:00,
2013-03-16 07:49:00,29.5,26.1,29.92,NE,45,12.3,15.4,87,0.00,,,0.00,WUHU216HW,2013-03-16 11:49:00,
2013-03-16 07:54:00,29.7,26.7,29.93,NE,45,8.9,13.0,88,0.00,,,0.00,WUHU216HW,2013-03-16 11:54:00,
2013-03-16 07:59:00,29.3,25.9,29.93,NE,45,13.0,15.7,87,0.00,,,0.00,WUHU216HW,2013-03-16 11:59:00,
2013-03-16 08:04:00,29.2,25.7,29.93,NE,45,11.9,18.6,87,0.00,,,0.00,WUHU216HW,2013-03-16 12:04:00,
2013-03-16 08:09:00,29.0,25.6,29.94,NE,45,12.3,18.6,87,0.00,,,0.00,WUHU216HW,2013-03-16 12:09:00,
2013-03-16 08:14:00,28.6,25.2,29.94,NE,45,18.8,18.8,87,0.00,,,0.00,WUHU216HW,2013-03-16 12:14:00,
2013-03-16 08:19:00,28.4,24.8,29.95,NE,45,14.1,18.8,86,0.00,,,0.00,WUHU216HW,2013-03-16 12:19:00,
2013-03-16 08:24:00,28.4,24.8,29.95,NE,45,13.9,17.7,86,0.00,,,0.00,WUHU216HW,2013-03-16 12:24:00,
2013-03-16 08:29:00,28.3,24.6,29.95,NE,45,12.8,18.8,86,0.00,,,0.00,WUHU216HW,2013-03-16 12:29:00,
2013-03-16 08:34:00,28.3,24.6,29.95,NE,45,16.8,18.8,86,0.00,,,0.00,WUHU216HW,2013-03-16 12:34:00,
2013-03-16 08:39:00,28.1,24.1,29.95,NE,45,15.0,17.9,85,0.00,,,0.00,WUHU216HW,2013-03-16 12:39:00,
2013-03-16 08:44:00,28.1,24.1,29.95,NE,45,15.4,15.4,85,0.00,,,0.00,WUHU216HW,2013-03-16 12:44:00,
2013-03-16 08:49:00,27.9,23.9,29.96,NE,45,17.2,17.2,85,0.00,,,0.00,WUHU216HW,2013-03-16 12:49:00,
2013-03-16 08:54:00,27.7,23.8,29.96,NE,45,17.9,21.9,85,0.00,,,0.00,WUHU216HW,2013-03-16 12:54:00,
2013-03-16 08:59:00,27.4,23.4,29.97,NE,45,12.3,21.9,85,0.00,,,0.00,WUHU216HW,2013-03-16 12:59:00,
2013-03-16 09:04:00,27.2,23.2,29.97,NE,45,19.0,21.5,85,0.00,,,0.00,WUHU216HW,2013-03-16 13:04:00,
2013-03-16 09:09:00,27.0,23.0,29.97,NE,45,13.2,21.5,85,0.00,,,0.00,WUHU216HW,2013-03-16 13:09:00,
2013-03-16 09:14:00,27.0,23.0,29.97,NE,45,19.7,20.1,85,0.00,,,0.00,WUHU216HW,2013-03-16 13:14:00,
2013-03-16 09:19:00,27.0,23.0,29.97,NE,45,15.0,20.1,85,0.00,,,0.00,WUHU216HW,2013-03-16 13:19:00,
2013-03-16 09:24:00,27.0,23.3,29.98,NE,45,9.6,17.4,86,0.00,,,0.00,WUHU216HW,2013-03-16 13:24:00,
2013-03-16 09:29:00,26.8,22.6,29.98,NE,45,17.9,20.1,84,0.00,,,0.00,WUHU216HW,2013-03-16 13:29:00,
2013-03-16 09:34:00,26.8,22.9,29.98,NE,45,17.9,20.1,85,0.00,,,0.00,WUHU216HW,2013-03-16 13:34:00,
2013-03-16 09:39:00,26.6,22.7,29.98,NE,45,16.6,18.1,85,0.00,,,0.00,WUHU216HW,2013-03-16 13:39:00,
2013-03-16 09:44:00,26.6,22.7,29.98,NE,45,11.4,18.1,85,0.00,,,0.00,WUHU216HW,2013-03-16 13:44:00,
2013-03-16 09:49:00,26.6,22.7,29.98,NE,45,15.7,18.1,85,0.00,,,0.00,WUHU216HW,2013-03-16 13:49:00,
2013-03-16 09:54:00,26.6,22.7,29.98,NE,45,15.4,17.9,85,0.00,,,0.00,WUHU216HW,2013-03-16 13:54:00,
2013-03-16 09:59:00,26.5,22.2,29.98,NE,45,12.8,21.7,84,0.00,,,0.00,WUHU216HW,2013-03-16 13:59:00,
2013-03-16 10:04:00,26.6,22.4,29.99,NE,45,10.5,21.7,84,0.00,,,0.00,WUHU216HW,2013-03-16 14:04:00,
2013-03-16 10:09:00,26.6,22.4,29.99,NE,45,13.4,19.7,84,0.00,,,0.00,WUHU216HW,2013-03-16 14:09:00,
2013-03-16 10:14:00,26.6,22.4,29.99,NE,45,16.6,20.8,84,0.00,,,0.00,WUHU216HW,2013-03-16 14:14:00,
2013-03-16 10:19:00,26.6,22.4,30.00,NE,45,15.9,20.8,84,0.00,,,0.00,WUHU216HW,2013-03-16 14:19:00,
2013-03-16 10:24:00,26.8,22.6,30.00,NE,45,11.9,16.6,84,0.00,,,0.00,WUHU216HW,2013-03-16 14:24:00,
2013-03-16 10:29:00,26.8,22.6,30.00,NE,45,14.8,18.6,84,0.00,,,0.00,WUHU216HW,2013-03-16 14:29:00,
2013-03-16 10:34:00,27.0,22.8,30.00,NE,45,13.6,18.6,84,0.00,,,0.00,WUHU216HW,2013-03-16 14:34:00,
2013-03-16 10:39:00,26.8,22.9,30.01,NE,45,11.6,17.2,85,0.00,,,0.00,WUHU216HW,2013-03-16 14:39:00,
2013-03-16 10:44:00,27.0,23.0,30.00,NE,45,12.8,15.7,85,0.00,,,0.00,WUHU216HW,2013-03-16 14:44:00,
2013-03-16 10:49:00,27.2,23.5,30.01,NE,45,12.1,15.7,86,0.00,,,0.00,WUHU216HW,2013-03-16 14:49:00,
2013-03-16 10:54:00,27.0,23.3,30.01,NE,45,15.0,15.2,86,0.00,,,0.00,WUHU216HW,2013-03-16 14:54:00,
2013-03-16 10:59:00,27.0,23.3,30.01,NE,45,15.9,15.9,86,0.00,,,0.00,WUHU216HW,2013-03-16 14:59:00,
2013-03-16 11:04:00,27.0,23.6,30.01,NE,45,16.1,16.1,87,0.00,,,0.00,WUHU216HW,2013-03-16 15:04:00,
2013-03-16 11:09:00,26.8,23.8,30.01,NE,45,14.3,17.2,88,0.00,,,0.00,WUHU216HW,2013-03-16 15:09:00,
2013-03-16 11:14:00,26.8,23.8,30.01,NE,45,14.8,18.6,88,0.00,,,0.00,WUHU216HW,2013-03-16 15:14:00,
2013-03-16 11:19:00,27.0,24.0,30.01,NE,45,15.0,18.6,88,0.00,,,0.00,WUHU216HW,2013-03-16 15:19:00,
2013-03-16 11:24:00,27.0,24.0,30.02,NE,45,11.0,15.0,88,0.00,,,0.00,WUHU216HW,2013-03-16 15:24:00,
2013-03-16 11:29:00,27.2,23.8,30.02,NE,45,11.2,14.3,87,0.00,,,0.00,WUHU216HW,2013-03-16 15:29:00,
2013-03-16 11:34:00,27.4,23.9,30.03,NE,45,8.5,12.8,87,0.00,,,0.00,WUHU216HW,2013-03-16 15:34:00,
2013-03-16 11:39:00,27.4,23.7,30.03,NE,45,10.5,12.1,86,0.00,,,0.00,WUHU216HW,2013-03-16 15:39:00,
2013-03-16 11:44:00,27.5,24.1,30.03,NE,45,8.9,12.1,87,0.00,,,0.00,WUHU216HW,2013-03-16 15:44:00,
2013-03-16 11:49:00,27.7,24.3,30.03,NE,45,7.6,9.8,87,0.00,,,0.00,WUHU216HW,2013-03-16 15:49:00,
2013-03-16 11:54:00,27.7,24.3,30.03,NE,45,8.5,9.4,87,0.00,,,0.00,WUHU216HW,2013-03-16 15:54:00,
2013-03-16 11:59:00,27.7,24.3,30.03,NE,45,8.5,8.5,87,0.00,,,0.00,WUHU216HW,2013-03-16 15:59:00,
2013-03-16 12:04:00,28.4,24.8,30.04,NE,45,8.7,11.9,86,0.00,,,0.00,WUHU216HW,2013-03-16 16:04:00,
2013-03-16 12:09:00,28.4,24.5,30.04,NE,45,9.8,11.9,85,0.00,,,0.00,WUHU216HW,2013-03-16 16:09:00,
2013-03-16 12:14:00,28.4,24.5,30.05,NE,45,7.8,14.3,85,0.00,,,0.00,WUHU216HW,2013-03-16 16:14:00,
2013-03-16 12:19:00,28.6,24.7,30.05,NE,45,10.5,14.3,85,0.00,,,0.00,WUHU216HW,2013-03-16 16:19:00,
2013-03-16 12:24:00,28.8,24.6,30.06,NE,45,9.6,10.5,84,0.00,,,0.00,WUHU216HW,2013-03-16 16:24:00,
2013-03-16 12:29:00,29.0,24.8,30.06,NE,45,6.9,9.8,84,0.00,,,0.00,WUHU216HW,2013-03-16 16:29:00,
2013-03-16 12:34:00,29.3,24.5,30.06,NE,45,7.8,12.1,82,0.00,,,0.00,WUHU216HW,2013-03-16 16:34:00,
2013-03-16 12:39:00,29.5,24.4,30.06,NE,45,7.2,12.1,81,0.00,,,0.00,WUHU216HW,2013-03-16 16:39:00,
2013-03-16 12:44:00,29.9,24.8,30.07,NE,45,6.3,9.4,81,0.00,,,0.00,WUHU216HW,2013-03-16 16:44:00,
2013-03-16 12:49:00,30.1,24.3,30.07,NE,45,7.8,7.8,79,0.00,,,0.00,WUHU216HW,2013-03-16 16:49:00,
2013-03-16 12:54:00,29.9,24.1,30.07,NE,45,7.4,7.8,79,0.00,,,0.00,WUHU216HW,2013-03-16 16:54:00,
2013-03-16 12:59:00,30.4,24.7,30.07,NE,45,9.6,9.6,79,0.00,,,0.00,WUHU216HW,2013-03-16 16:59:00,
2013-03-16 13:04:00,30.6,24.6,30.07,NE,45,8.7,10.5,78,0.00,,,0.00,WUHU216HW,2013-03-16 17:04:00,
2013-03-16 13:09:00,30.6,24.6,30.08,NE,45,8.1,10.5,78,0.00,,,0.00,WUHU216HW,2013-03-16 17:09:00,
2013-03-16 13:14:00,31.0,24.9,30.08,NE,45,6.9,9.2,78,0.00,,,0.00,WUHU216HW,2013-03-16 17:14:00,
2013-03-16 13:19:00,31.1,25.1,30.08,NE,45,3.1,6.9,78,0.00,,,0.00,WUHU216HW,2013-03-16 17:19:00,
2013-03-16 13:24:00,31.1,25.1,30.08,NE,45,5.4,5.4,78,0.00,,,0.00,WUHU216HW,2013-03-16 17:24:00,
2013-03-16 13:29:00,31.1,24.8,30.08,NE,45,5.1,5.4,77,0.00,,,0.00,WUHU216HW,2013-03-16 17:29:00,
2013-03-16 13:34:00,31.3,25.3,30.09,NE,45,6.5,6.5,78,0.00,,,0.00,WUHU216HW,2013-03-16 17:34:00,
2013-03-16 13:39:00,31.3,24.7,30.09,NE,45,6.3,6.7,76,0.00,,,0.00,WUHU216HW,2013-03-16 17:39:00,
2013-03-16 13:44:00,31.1,25.1,30.09,NE,45,3.6,9.2,78,0.00,,,0.00,WUHU216HW,2013-03-16 17:44:00,
2013-03-16 13:49:00,31.3,24.7,30.09,NE,45,3.4,10.7,76,0.00,,,0.00,WUHU216HW,2013-03-16 17:49:00,
2013-03-16 13:54:00,31.7,24.7,30.10,NE,45,6.3,10.7,75,0.00,,,0.00,WUHU216HW,2013-03-16 17:54:00,
2013-03-16 13:59:00,31.7,24.3,30.10,NE,45,4.5,7.6,74,0.00,,,0.00,WUHU216HW,2013-03-16 17:59:00,
2013-03-16 14:04:00,31.7,24.3,30.10,NE,45,5.4,7.6,74,0.00,,,0.00,WUHU216HW,2013-03-16 18:04:00,
2013-03-16 14:09:00,31.7,24.3,30.10,NE,45,3.4,8.5,74,0.00,,,0.00,WUHU216HW,2013-03-16 18:09:00,
2013-03-16 14:14:00,32.0,24.4,30.10,NE,45,6.5,8.5,73,0.00,,,0.00,WUHU216HW,2013-03-16 18:14:00,
2013-03-16 14:19:00,32.0,24.4,30.10,NE,45,5.8,8.5,73,0.00,,,0.00,WUHU216HW,2013-03-16 18:19:00,
2013-03-16 14:24:00,31.7,24.0,30.10,NE,45,8.7,9.2,73,0.00,,,0.00,WUHU216HW,2013-03-16 18:24:00,
2013-03-16 14:29:00,31.7,24.3,30.10,NE,45,3.4,9.2,74,0.00,,,0.00,WUHU216HW,2013-03-16 18:29:00,
2013-03-16 14:34:00,31.7,24.7,30.09,NE,45,4.0,8.5,75,0.01,,,0.01,WUHU216HW,2013-03-16 18:34:00,
2013-03-16 14:39:00,31.7,24.7,30.09,NW,315,5.4,11.2,75,0.01,,,0.01,WUHU216HW,2013-03-16 18:39:00,
2013-03-16 14:45:00,32.0,24.7,30.09,NW,315,5.1,11.2,74,0.01,,,0.01,WUHU216HW,2013-03-16 18:45:00,
2013-03-16 14:50:00,31.9,25.2,30.09,NW,315,5.1,7.6,76,0.01,,,0.01,WUHU216HW,2013-03-16 18:50:00,
2013-03-16 14:55:00,32.0,25.4,30.09,NW,315,4.3,6.5,76,0.01,,,0.01,WUHU216HW,2013-03-16 18:55:00,
2013-03-16 15:00:00,32.6,25.5,30.09,NW,315,4.7,6.5,75,0.02,,,0.02,WUHU216HW,2013-03-16 19:00:00,
2013-03-16 15:05:00,32.9,26.2,30.09,NW,315,7.2,7.2,76,0.02,,,0.02,WUHU216HW,2013-03-16 19:05:00,
2013-03-16 15:10:00,33.5,26.0,30.09,North,0,4.7,7.2,74,0.02,,,0.02,WUHU216HW,2013-03-16 19:10:00,
2013-03-16 15:15:00,33.8,26.3,30.09,NNW,338,5.4,6.9,74,0.02,,,0.02,WUHU216HW,2013-03-16 19:15:00,
2013-03-16 15:20:00,34.2,26.4,30.09,North,0,6.3,7.6,73,0.03,,,0.02,WUHU216HW,2013-03-16 19:20:00,
2013-03-16 15:25:00,33.5,25.7,30.09,NW,315,10.3,11.0,73,0.03,,,0.03,WUHU216HW,2013-03-16 19:25:00,
2013-03-16 15:30:00,33.3,25.5,30.09,NW,315,6.5,11.0,73,0.02,,,0.03,WUHU216HW,2013-03-16 19:30:00,
2013-03-16 15:35:00,33.3,25.2,30.09,NW,315,8.9,9.8,72,0.02,,,0.03,WUHU216HW,2013-03-16 19:35:00,
2013-03-16 15:40:00,33.5,25.4,30.09,NW,315,4.9,9.8,72,0.02,,,0.03,WUHU216HW,2013-03-16 19:40:00,
2013-03-16 15:45:00,33.5,25.4,30.08,NW,315,4.3,6.7,72,0.02,,,0.03,WUHU216HW,2013-03-16 19:45:00,
2013-03-16 15:50:00,33.8,25.4,30.08,NW,315,4.0,6.3,71,0.02,,,0.03,WUHU216HW,2013-03-16 19:50:00,
2013-03-16 15:55:00,34.0,25.8,30.08,NW,315,7.6,8.1,72,0.02,,,0.03,WUHU216HW,2013-03-16 19:55:00,
2013-03-16 16:00:00,34.0,25.6,30.09,NW,315,2.7,8.1,71,0.01,,,0.03,WUHU216HW,2013-03-16 20:00:00,
2013-03-16 16:05:00,34.2,25.8,30.09,NW,315,6.9,7.4,71,0.01,,,0.03,WUHU216HW,2013-03-16 20:05:00,
2013-03-16 16:10:00,33.8,25.4,30.08,NW,315,2.7,7.8,71,0.01,,,0.03,WUHU216HW,2013-03-16 20:10:00,
2013-03-16 16:15:00,34.2,25.8,30.08,NW,315,3.8,7.8,71,0.01,,,0.03,WUHU216HW,2013-03-16 20:15:00,
2013-03-16 16:20:00,34.6,26.4,30.08,North,0,1.6,6.3,72,0.00,,,0.03,WUHU216HW,2013-03-16 20:20:00,
2013-03-16 16:25:00,34.7,26.6,30.08,North,0,3.4,6.3,72,0.00,,,0.03,WUHU216HW,2013-03-16 20:25:00,
2013-03-16 16:30:00,34.9,26.7,30.08,NNW,338,6.3,6.7,72,0.00,,,0.03,WUHU216HW,2013-03-16 20:30:00,
2013-03-16 16:35:00,35.1,26.7,30.09,North,0,2.5,12.1,71,0.00,,,0.03,WUHU216HW,2013-03-16 20:35:00,
2013-03-16 16:40:00,34.9,26.1,30.09,NW,315,7.4,12.1,70,0.00,,,0.03,WUHU216HW,2013-03-16 20:40:00,
2013-03-16 16:45:00,34.6,25.7,30.09,WNW,293,4.7,9.6,70,0.00,,,0.03,WUHU216HW,2013-03-16 20:45:00,
2013-03-16 16:50:00,34.7,26.3,30.09,West,270,7.4,9.6,71,0.00,,,0.03,WUHU216HW,2013-03-16 20:50:00,
2013-03-16 16:55:00,34.6,25.7,30.09,West,270,6.9,8.9,70,0.00,,,0.03,WUHU216HW,2013-03-16 20:55:00,
2013-03-16 17:00:00,34.4,25.9,30.10,WNW,293,7.6,8.9,71,0.00,,,0.03,WUHU216HW,2013-03-16 21:00:00,
2013-03-16 17:05:00,34.2,26.0,30.10,WNW,293,5.8,8.5,72,0.00,,,0.03,WUHU216HW,2013-03-16 21:05:00,
2013-03-16 17:10:00,34.2,26.4,30.10,WSW,248,8.5,8.7,73,0.00,,,0.03,WUHU216HW,2013-03-16 21:10:00,
2013-03-16 17:15:00,34.2,26.4,30.10,WNW,293,8.5,8.7,73,0.00,,,0.03,WUHU216HW,2013-03-16 21:15:00,
2013-03-16 17:20:00,33.8,26.0,30.11,WNW,293,9.8,11.0,73,0.00,,,0.03,WUHU216HW,2013-03-16 21:20:00,
2013-03-16 17:25:00,33.8,26.6,30.11,West,270,11.2,11.2,75,0.00,,,0.03,WUHU216HW,2013-03-16 21:25:00,
2013-03-16 17:30:00,33.7,26.5,30.11,West,270,10.5,11.2,75,0.00,,,0.03,WUHU216HW,2013-03-16 21:30:00,
2013-03-16 17:35:00,33.7,26.8,30.11,West,270,7.6,12.5,76,0.00,,,0.03,WUHU216HW,2013-03-16 21:35:00,
2013-03-16 17:40:00,33.5,26.0,30.11,West,270,8.3,12.5,74,0.00,,,0.03,WUHU216HW,2013-03-16 21:40:00,
2013-03-16 17:45:00,33.5,26.3,30.11,West,270,8.7,12.3,75,0.00,,,0.03,WUHU216HW,2013-03-16 21:45:00,
2013-03-16 17:50:00,33.7,26.5,30.11,West,270,11.4,11.4,75,0.00,,,0.03,WUHU216HW,2013-03-16 21:50:00,
2013-03-16 17:55:00,33.5,26.0,30.11,West,270,7.8,11.4,74,0.00,,,0.03,WUHU216HW,2013-03-16 21:55:00,
2013-03-16 18:00:00,33.5,25.7,30.11,West,270,10.3,11.4,73,0.00,,,0.03,WUHU216HW,2013-03-16 22:00:00,
2013-03-16 18:05:00,33.5,25.7,30.11,West,270,15.0,15.0,73,0.00,,,0.03,WUHU216HW,2013-03-16 22:05:00,
2013-03-16 18:10:00,33.7,25.8,30.11,WSW,248,9.6,15.4,73,0.00,,,0.03,WUHU216HW,2013-03-16 22:10:00,
2013-03-16 18:15:00,34.0,25.6,30.11,West,270,9.8,15.4,71,0.00,,,0.03,WUHU216HW,2013-03-16 22:15:00,
2013-03-16 18:20:00,34.2,25.8,30.12,West,270,13.4,13.4,71,0.00,,,0.03,WUHU216HW,2013-03-16 22:20:00,
2013-03-16 18:25:00,34.2,25.4,30.12,West,270,14.1,14.1,70,0.00,,,0.03,WUHU216HW,2013-03-16 22:25:00,
2013-03-16 18:30:00,34.2,25.8,30.12,West,270,11.2,14.1,71,0.00,,,0.03,WUHU216HW,2013-03-16 22:30:00,
2013-03-16 18:35:00,34.0,25.8,30.12,West,270,13.9,13.9,72,0.00,,,0.03,WUHU216HW,2013-03-16 22:35:00,
2013-03-16 18:40:00,33.5,24.7,30.12,West,270,12.1,13.9,70,0.00,,,0.03,WUHU216HW,2013-03-16 22:40:00,
2013-03-16 18:45:00,33.1,25.0,30.12,WSW,248,10.5,14.3,72,0.00,,,0.03,WUHU216HW,2013-03-16 22:45:00,
2013-03-16 18:50:00,32.8,24.7,30.12,West,270,9.2,14.3,72,0.00,,,0.03,WUHU216HW,2013-03-16 22:50:00,
2013-03-16 18:55:00,32.6,24.8,30.12,West,270,11.0,14.3,73,0.00,,,0.03,WUHU216HW,2013-03-16 22:55:00,
2013-03-16 19:00:00,32.4,24.4,30.12,NW,315,10.3,11.6,72,0.00,,,0.03,WUHU216HW,2013-03-16 23:00:00,
2013-03-16 19:05:00,32.0,24.4,30.12,West,270,11.6,11.9,73,0.00,,,0.03,WUHU216HW,2013-03-16 23:05:00,
2013-03-16 19:10:00,32.0,24.7,30.12,WNW,293,8.5,11.9,74,0.00,,,0.03,WUHU216HW,2013-03-16 23:10:00,
2013-03-16 19:15:00,31.7,24.0,30.12,WNW,293,14.1,14.1,73,0.00,,,0.03,WUHU216HW,2013-03-16 23:15:00,
2013-03-16 19:20:00,31.3,23.3,30.13,NW,315,12.8,14.5,72,0.00,,,0.03,WUHU216HW,2013-03-16 23:20:00,
2013-03-16 19:25:00,31.1,23.5,30.13,West,270,14.5,14.5,73,0.00,,,0.03,WUHU216HW,2013-03-16 23:25:00,
2013-03-16 19:30:00,31.0,23.6,30.13,WNW,293,12.5,14.5,74,0.00,,,0.03,WUHU216HW,2013-03-16 23:30:00,
2013-03-16 19:35:00,30.8,23.8,30.13,WNW,293,9.8,14.5,75,0.00,,,0.03,WUHU216HW,2013-03-16 23:35:00,
2013-03-16 19:40:00,30.6,23.6,30.13,WNW,293,9.8,14.8,75,0.00,,,0.03,WUHU216HW,2013-03-16 23:40:00,
2013-03-16 19:45:00,30.2,22.9,30.14,WNW,293,14.5,14.8,74,0.00,,,0.03,WUHU216HW,2013-03-16 23:45:00,
2013-03-16 19:50:00,30.1,23.4,30.13,WNW,293,10.5,14.5,76,0.00,,,0.03,WUHU216HW,2013-03-16 23:50:00,
2013-03-16 19:55:00,29.9,23.2,30.14,WNW,293,11.9,13.0,76,0.00,,,0.03,WUHU216HW,2013-03-16 23:55:00,
2013-03-16 20:00:00,29.9,22.9,30.14,WNW,293,13.4,14.3,75,0.00,,,0.03,WUHU216HW,2013-03-17 00:00:00,
2013-03-16 20:05:00,29.7,22.7,30.14,West,270,8.5,14.3,75,0.00,,,0.03,WUHU216HW,2013-03-17 00:05:00,
2013-03-16 20:10:00,29.5,22.5,30.14,WNW,293,11.4,12.3,75,0.00,,,0.03,WUHU216HW,2013-03-17 00:10:00,
2013-03-16 20:15:00,29.3,22.7,30.15,West,270,12.8,12.8,76,0.00,,,0.03,WUHU216HW,2013-03-17 00:15:00,
2013-03-16 20:20:00,29.3,22.7,30.15,WNW,293,7.8,12.8,76,0.00,,,0.03,WUHU216HW,2013-03-17 00:20:00,
2013-03-16 20:25:00,29.2,22.5,30.15,NW,315,10.5,10.5,76,0.00,,,0.03,WUHU216HW,2013-03-17 00:25:00,
2013-03-16 20:30:00,29.0,22.3,30.16,WNW,293,11.2,14.3,76,0.00,,,0.03,WUHU216HW,2013-03-17 00:30:00,
2013-03-16 20:35:00,29.0,22.1,30.16,WNW,293,8.7,14.3,75,0.00,,,0.03,WUHU216HW,2013-03-17 00:35:00,
2013-03-16 20:40:00,28.8,21.9,30.16,WNW,293,12.1,12.1,75,0.00,,,0.03,WUHU216HW,2013-03-17 00:40:00,
2013-03-16 20:45:00,28.8,21.9,30.16,WNW,293,13.0,13.0,75,0.00,,,0.03,WUHU216HW,2013-03-17 00:45:00,
2013-03-16 20:50:00,28.8,22.1,30.16,West,270,9.2,13.4,76,0.00,,,0.03,WUHU216HW,2013-03-17 00:50:00,
2013-03-16 20:55:00,28.6,21.7,30.16,West,270,7.8,13.4,75,0.00,,,0.03,WUHU216HW,2013-03-17 00:55:00,
2013-03-16 21:00:00,28.4,21.8,30.16,WNW,293,9.2,12.1,76,0.00,,,0.03,WUHU216HW,2013-03-17 01:00:00,
2013-03-16 21:05:00,28.4,21.8,30.16,NW,315,9.4,12.1,76,0.00,,,0.03,WUHU216HW,2013-03-17 01:05:00,
2013-03-16 21:10:00,28.4,22.2,30.16,NW,315,9.8,9.8,77,0.00,,,0.03,WUHU216HW,2013-03-17 01:10:00,
2013-03-16 21:15:00,28.4,21.8,30.16,NW,315,8.5,9.8,76,0.00,,,0.03,WUHU216HW,2013-03-17 01:15:00,
2013-03-16 21:20:00,28.4,21.8,30.17,NW,315,8.1,10.1,76,0.00,,,0.03,WUHU216HW,2013-03-17 01:20:00,
2013-03-16 21:25:00,28.3,22.0,30.16,WNW,293,8.7,10.1,77,0.00,,,0.03,WUHU216HW,2013-03-17 01:25:00,
2013-03-16 21:30:00,28.3,22.0,30.17,WNW,293,7.6,9.6,77,0.00,,,0.03,WUHU216HW,2013-03-17 01:30:00,
2013-03-16 21:35:00,28.1,21.8,30.17,WNW,293,4.0,8.1,77,0.00,,,0.03,WUHU216HW,2013-03-17 01:35:00,
2013-03-16 21:40:00,28.1,21.8,30.17,WNW,293,7.6,7.6,77,0.00,,,0.03,WUHU216HW,2013-03-17 01:40:00,
2013-03-16 21:45:00,27.9,21.6,30.18,NW,315,3.8,7.6,77,0.00,,,0.03,WUHU216HW,2013-03-17 01:45:00,
2013-03-16 21:50:00,27.9,21.6,30.18,WNW,293,5.4,6.3,77,0.00,,,0.03,WUHU216HW,2013-03-17 01:50:00,
2013-03-16 21:55:00,27.9,21.9,30.19,WNW,293,4.7,6.3,78,0.00,,,0.03,WUHU216HW,2013-03-17 01:55:00,
2013-03-16 22:00:00,27.7,21.7,30.19,WNW,293,4.7,6.3,78,0.00,,,0.03,WUHU216HW,2013-03-17 02:00:00,
2013-03-16 22:05:00,27.7,21.7,30.19,WNW,293,6.9,6.9,78,0.00,,,0.03,WUHU216HW,2013-03-17 02:05:00,
2013-03-16 22:10:00,27.7,22.1,30.19,WNW,293,4.5,6.9,79,0.00,,,0.03,WUHU216HW,2013-03-17 02:10:00,
2013-03-16 22:15:00,27.9,22.2,30.19,NW,315,9.8,9.8,79,0.00,,,0.03,WUHU216HW,2013-03-17 02:15:00,
2013-03-16 22:20:00,28.1,22.1,30.20,WNW,293,12.5,14.3,78,0.00,,,0.03,WUHU216HW,2013-03-17 02:20:00,
2013-03-16 22:25:00,28.3,22.0,30.20,West,270,11.4,17.2,77,0.00,,,0.03,WUHU216HW,2013-03-17 02:25:00,
2013-03-16 22:30:00,28.3,21.6,30.21,WNW,293,11.4,17.2,76,0.00,,,0.03,WUHU216HW,2013-03-17 02:30:00,
2013-03-16 22:35:00,28.4,22.2,30.22,WNW,293,12.1,13.4,77,0.00,,,0.03,WUHU216HW,2013-03-17 02:35:00,
2013-03-16 22:40:00,28.4,21.8,30.22,WNW,293,9.2,13.4,76,0.00,,,0.03,WUHU216HW,2013-03-17 02:40:00,
2013-03-16 22:45:00,28.4,21.5,30.22,NW,315,11.2,15.7,75,0.00,,,0.03,WUHU216HW,2013-03-17 02:45:00,
2013-03-16 22:50:00,28.4,21.5,30.22,NW,315,17.9,17.9,75,0.00,,,0.03,WUHU216HW,2013-03-17 02:50:00,
2013-03-16 22:55:00,28.4,21.5,30.21,NW,315,12.8,17.9,75,0.00,,,0.03,WUHU216HW,2013-03-17 02:55:00,
2013-03-16 23:00:00,28.4,21.8,30.21,NW,315,11.6,15.0,76,0.00,,,0.03,WUHU216HW,2013-03-17 03:00:00,
2013-03-16 23:05:00,28.3,21.6,30.21,NW,315,11.6,13.9,76,0.00,,,0.03,WUHU216HW,2013-03-17 03:05:00,
2013-03-16 23:10:00,28.3,21.3,30.21,West,270,12.1,13.6,75,0.00,,,0.03,WUHU216HW,2013-03-17 03:10:00,
2013-03-16 23:15:00,28.1,21.2,30.21,NW,315,9.2,16.1,75,0.00,,,0.03,WUHU216HW,2013-03-17 03:15:00,
2013-03-16 23:20:00,28.1,21.2,30.21,WNW,293,11.9,16.1,75,0.00,,,0.03,WUHU216HW,2013-03-17 03:20:00,
2013-03-16 23:25:00,27.9,21.0,30.21,WNW,293,10.5,15.0,75,0.00,,,0.03,WUHU216HW,2013-03-17 03:25:00,
2013-03-16 23:30:00,27.9,21.2,30.21,NNW,338,11.0,16.3,76,0.00,,,0.03,WUHU216HW,2013-03-17 03:30:00,
2013-03-16 23:35:00,27.9,21.0,30.22,NW,315,11.9,16.3,75,0.00,,,0.03,WUHU216HW,2013-03-17 03:35:00,
2013-03-16 23:40:00,27.7,20.8,30.21,NNW,338,11.4,13.4,75,0.00,,,0.03,WUHU216HW,2013-03-17 03:40:00,
2013-03-16 23:45:00,27.7,20.8,30.21,WNW,293,8.9,13.6,75,0.00,,,0.03,WUHU216HW,2013-03-17 03:45:00,
2013-03-16 23:50:00,27.7,21.4,30.21,NW,315,6.7,13.6,77,0.00,,,0.03,WUHU216HW,2013-03-17 03:50:00,
2013-03-16 23:55:00,27.7,21.1,30.21,WNW,293,10.7,10.7,76,0.00,,,0.03,WUHU216HW,2013-03-17 03:55:00,